• In Romania
  • List of Countries
  • For 7 days
  • Water Temperature
  • Satellite Maps
  • Weather Map
  • Weather Widgets
  • user-avatar
    Login

    Hourly Weather Pyatiusovo

    Today, 25 September, Tuesday

    Time Temperature Precipitation Wind Pressure Humidity
    00:00 +5°C° 0.2 mm 6 mps 732 mmHg 91%
    01:00 +5°C° 0.2 mm 6 mps 733 mmHg 90%
    02:00 +6°C° 0 mm 4 mps 734 mmHg 91%
    03:00 +5°C° 0 mm 5 mps 734 mmHg 91%
    04:00 +5°C° 0 mm 5 mps 735 mmHg 91%
    05:00 +3°C° 0 mm 5 mps 736 mmHg 91%
    06:00 +3°C° 0 mm 5 mps 737 mmHg 89%
    07:00 +5°C° 0 mm 5 mps 737 mmHg 88%
    08:00 +5°C° 0 mm 5 mps 738 mmHg 86%
    09:00 +5°C° 0 mm 5 mps 739 mmHg 82%
    10:00 +6°C° 0 mm 5 mps 740 mmHg 78%
    11:00 +7°C° 0 mm 5 mps 740 mmHg 74%
    12:00 +7°C° 0.1 mm 5 mps 741 mmHg 70%
    13:00 +8°C° 0.1 mm 5 mps 742 mmHg 66%
    14:00 +8°C° 0 mm 5 mps 742 mmHg 64%
    15:00 +8°C° 0.1 mm 5 mps 743 mmHg 67%
    16:00 +7°C° 0.1 mm 4 mps 743 mmHg 70%
    17:00 +6°C° 0.1 mm 4 mps 744 mmHg 74%
    18:00 +5°C° 0 mm 4 mps 744 mmHg 76%
    19:00 +4°C° 0 mm 4 mps 745 mmHg 79%
    20:00 +4°C° 0 mm 3 mps 746 mmHg 81%
    21:00 +3°C° 0 mm 3 mps 747 mmHg 81%
    22:00 +3°C° 0 mm 3 mps 747 mmHg 81%
    23:00 +2°C° 0 mm 3 mps 748 mmHg 80%

    Tomorrow, 26 September, Wednesday

    Time Temperature Precipitation Wind Pressure Humidity
    00:00 +2°C° 0 mm 3 mps 748 mmHg 82%
    01:00 +2°C° 0 mm 3 mps 749 mmHg 83%
    02:00 +1°C° 0 mm 3 mps 749 mmHg 84%
    03:00 +1°C° 0 mm 3 mps 749 mmHg 86%
    04:00 +1°C° 0 mm 3 mps 750 mmHg 87%
    05:00 +1°C° 0 mm 3 mps 750 mmHg 89%
    06:00 +2°C° 0 mm 3 mps 750 mmHg 85%
    07:00 +3°C° 0 mm 3 mps 750 mmHg 82%
    08:00 +4°C° 0 mm 3 mps 750 mmHg 78%
    09:00 +5°C° 0 mm 4 mps 750 mmHg 72%
    10:00 +7°C° 0 mm 4 mps 750 mmHg 65%
    11:00 +10°C° 0 mm 4 mps 750 mmHg 59%
    12:00 +9°C° 0 mm 5 mps 749 mmHg 57%
    13:00 +10°C° 0 mm 5 mps 748 mmHg 56%
    14:00 +10°C° 0 mm 5 mps 748 mmHg 54%
    15:00 +10°C° 0.1 mm 6 mps 747 mmHg 61%
    16:00 +9°C° 0.1 mm 6 mps 746 mmHg 67%
    17:00 +8°C° 0.1 mm 6 mps 745 mmHg 73%
    18:00 +7°C° 1 mm 6 mps 744 mmHg 78%
    19:00 +5°C° 1 mm 7 mps 743 mmHg 83%
    20:00 +5°C° 1 mm 8 mps 742 mmHg 88%
    21:00 +5°C° 1.3 mm 8 mps 740 mmHg 88%
    22:00 +5°C° 1.3 mm 8 mps 739 mmHg 89%
    23:00 +5°C° 1.3 mm 8 mps 738 mmHg 89%

    Day after tomorrow, 27 September, Thursday

    Time Temperature Precipitation Wind Pressure Humidity
    00:00 +5°C° 0.6 mm 8 mps 737 mmHg 90%
    01:00 +6°C° 0.6 mm 8 mps 736 mmHg 90%
    02:00 +6°C° 0.6 mm 8 mps 736 mmHg 90%
    03:00 +6°C° 1.3 mm 7 mps 735 mmHg 91%
    04:00 +7°C° 1.3 mm 6 mps 735 mmHg 92%
    05:00 +7°C° 1.3 mm 5 mps 735 mmHg 93%
    06:00 +7°C° 0.2 mm 5 mps 736 mmHg 90%
    07:00 +7°C° 0.2 mm 5 mps 736 mmHg 87%
    08:00 +7°C° 0.2 mm 5 mps 736 mmHg 84%
    09:00 +8°C° 0 mm 5 mps 737 mmHg 75%
    10:00 +9°C° 0 mm 6 mps 737 mmHg 67%
    11:00 +10°C° 0 mm 7 mps 738 mmHg 59%
    12:00 +10°C° 0.1 mm 7 mps 738 mmHg 57%
    13:00 +11°C° 0.1 mm 7 mps 738 mmHg 55%
    14:00 +11°C° 0.1 mm 7 mps 738 mmHg 54%
    15:00 +10°C° 0 mm 6 mps 738 mmHg 57%
    16:00 +10°C° 0 mm 5 mps 739 mmHg 61%
    17:00 +10°C° 0 mm 3 mps 739 mmHg 65%
    18:00 +9°C° 0 mm 3 mps 739 mmHg 67%
    19:00 +8°C° 0 mm 3 mps 739 mmHg 69%
    20:00 +8°C° 0 mm 3 mps 740 mmHg 71%
    21:00 +7°C° 0 mm 3 mps 739 mmHg 72%
    22:00 +7°C° 0 mm 3 mps 739 mmHg 73%
    23:00 +7°C° 0 mm 3 mps 739 mmHg 75%

    28 September, Friday

    Time Temperature Precipitation Wind Pressure Humidity
    00:00 +7°C° 0.2 mm 4 mps 737 mmHg 79%
    01:00 +7°C° 0.2 mm 5 mps 736 mmHg 83%
    02:00 +8°C° 0.2 mm 6 mps 735 mmHg 87%
    03:00 +9°C° 0.6 mm 6 mps 734 mmHg 87%
    04:00 +11°C° 0.6 mm 7 mps 732 mmHg 87%
    05:00 +12°C° 0.6 mm 8 mps 731 mmHg 88%
    06:00 +12°C° 1.5 mm 8 mps 731 mmHg 88%
    07:00 +11°C° 1.5 mm 7 mps 731 mmHg 88%
    08:00 +11°C° 1.5 mm 7 mps 731 mmHg 88%
    09:00 +10°C° 0.6 mm 7 mps 732 mmHg 87%
    10:00 +9°C° 0.6 mm 6 mps 733 mmHg 86%
    11:00 +8°C° 0.6 mm 6 mps 734 mmHg 85%
    12:00 +8°C° 0.1 mm 5 mps 735 mmHg 81%
    13:00 +8°C° 0.1 mm 5 mps 736 mmHg 78%
    14:00 +8°C° 0.1 mm 4 mps 737 mmHg 75%
    15:00 +8°C° 0 mm 3 mps 738 mmHg 77%
    16:00 +8°C° 0 mm 3 mps 739 mmHg 79%
    17:00 +7°C° 0 mm 2 mps 739 mmHg 81%
    18:00 +7°C° 0 mm 2 mps 740 mmHg 84%
    19:00 +6°C° 0 mm 2 mps 741 mmHg 88%
    20:00 +5°C° 0 mm 2 mps 741 mmHg 91%
    21:00 +5°C° 0 mm 2 mps 742 mmHg 93%
    22:00 +4°C° 0 mm 2 mps 742 mmHg 94%
    23:00 +4°C° 0 mm 2 mps 743 mmHg 95%

    29 September, Saturday

    Time Temperature Precipitation Wind Pressure Humidity
    00:00 +3°C° 0 mm 2 mps 743 mmHg 95%
    01:00 +4°C° 0 mm 1 mps 744 mmHg 95%
    02:00 +3°C° 0 mm 1 mps 744 mmHg 96%
    03:00 +3°C° 0 mm 1 mps 745 mmHg 95%
    04:00 +3°C° 0 mm 1 mps 745 mmHg 94%
    05:00 +2°C° 0 mm 1 mps 746 mmHg 93%
    06:00 +3°C° 0 mm 1 mps 746 mmHg 88%
    07:00 +3°C° 0 mm 2 mps 747 mmHg 84%
    08:00 +4°C° 0 mm 2 mps 748 mmHg 80%
    09:00 +5°C° 0 mm 2 mps 748 mmHg 72%
    10:00 +6°C° 0 mm 2 mps 749 mmHg 64%
    11:00 +7°C° 0 mm 3 mps 749 mmHg 56%
    12:00 +8°C° 0 mm 3 mps 750 mmHg 54%
    13:00 +8°C° 0 mm 3 mps 750 mmHg 51%
    14:00 +8°C° 0 mm 3 mps 750 mmHg 49%
    15:00 +7°C° 0 mm 2 mps 750 mmHg 55%
    16:00 +6°C° 0 mm 2 mps 750 mmHg 60%
    17:00 +6°C° 0 mm 1 mps 751 mmHg 65%
    18:00 +5°C° 0 mm 1 mps 751 mmHg 69%
    19:00 +4°C° 0 mm 1 mps 752 mmHg 72%
    20:00 +3°C° 0 mm 1 mps 752 mmHg 75%
    21:00 +3°C° 0 mm 1 mps 752 mmHg 76%
    22:00 +3°C° 0 mm 1 mps 752 mmHg 77%
    23:00 +2°C° 0 mm 1 mps 753 mmHg 78%

    30 September, Sunday

    Time Temperature Precipitation Wind Pressure Humidity
    00:00 +1°C° 0 mm 2 mps 753 mmHg 79%
    01:00 +1°C° 0 mm 2 mps 753 mmHg 79%
    02:00 +1°C° 0 mm 2 mps 753 mmHg 79%
    03:00 +1°C° 0 mm 2 mps 753 mmHg 79%
    04:00 +1°C° 0 mm 2 mps 752 mmHg 79%
    05:00 +1°C° 0 mm 2 mps 752 mmHg 79%
    06:00 +1°C° 0 mm 3 mps 752 mmHg 74%
    07:00 +2°C° 0 mm 3 mps 752 mmHg 69%
    08:00 +3°C° 0 mm 4 mps 752 mmHg 64%
    09:00 +5°C° 0 mm 4 mps 752 mmHg 59%
    10:00 +6°C° 0 mm 4 mps 752 mmHg 54%
    11:00 +8°C° 0 mm 5 mps 752 mmHg 49%
    12:00 +8°C° 0 mm 5 mps 751 mmHg 47%
    13:00 +9°C° 0 mm 5 mps 751 mmHg 46%
    14:00 +9°C° 0 mm 5 mps 750 mmHg 45%
    15:00 +8°C° 0 mm 4 mps 750 mmHg 50%
    16:00 +7°C° 0 mm 4 mps 750 mmHg 56%
    17:00 +7°C° 0 mm 3 mps 749 mmHg 61%
    18:00 +7°C° 0 mm 3 mps 749 mmHg 64%
    19:00 +5°C° 0 mm 3 mps 749 mmHg 68%
    20:00 +4°C° 0 mm 3 mps 749 mmHg 71%
    21:00 +4°C° 0 mm 3 mps 749 mmHg 74%
    22:00 +4°C° 0 mm 3 mps 749 mmHg 76%
    23:00 +4°C° 0 mm 3 mps 748 mmHg 79%
    Show more